Regional Weather Roundup
Issued by NWS

Home | Current Version | Previous Version | Text Only | Print | Product List | Glossary On
Versions: 1 2 3 4 5 6 7 8 9 10 11 12 13 14 15 16 17 18 19 20 21 22 23 24 25 26 27 28 29 30 31 32 33 34 35 36 37 38 39 40 41 42 43 44 45 46 47 48 49 50
839
ASUS44 KFWD 181015
RWRTX
NORTH TEXAS HOURLY WEATHER ROUNDUP
NATIONAL WEATHER SERVICE FORT WORTH TX
500 AM CDT FRI AUG 18 2017

NOTE: "FAIR" INDICATES FEW OR NO CLOUDS BELOW 12,000 FEET WITH NO
SIGNIFICANT WEATHER AND/OR OBSTRUCTIONS TO VISIBILITY.

TXZ118-119-181100-
DALLAS/FORT WORTH METROPLEX

CITY           SKY/WX    TMP DP  RH WIND       PRES   REMARKS
DFW AIRPORT    CLOUDY    77  72  84 S3        29.96F
DALLAS LOVE    CLOUDY    79  71  76 S3        29.97F
FTW MEACHAM    PTCLDY    74  72  93 S3        29.97F
DAL-EXECUTIVE  CLOUDY    76  73  91 S3        29.97F
FTW-ALLIANCE   CLOUDY    73  70  90 S5        29.97F
FTW-NAS-JRB    PTCLDY    75  70  84 CALM      29.98F
FTW-SPINKS     CLOUDY    74  70  88 CALM      30.00S
ARLINGTON      CLOUDY    74  74 100 CALM      29.98F
GRAND PRAIRIE  CLOUDY    76  70  82 CALM      29.99F
ADDISON        CLOUDY    77  70  78 SE3       29.99F
MESQUITE         N/A     75  74  94 CALM      29.98F
LANCASTER      CLOUDY    74  72  92 CALM      29.99F
$$

TXZ091>094-102>105-117-120-121-131>134-181100-
NORTH CENTRAL TEXAS

CITY           SKY/WX    TMP DP  RH WIND       PRES   REMARKS
SHRMAN/DENISON CLEAR     74  74  99 CALM      30.00S FOG
GAINESVILLE    CLEAR     71  68  92 CALM      30.01S
BOWIE          CLEAR     69  69  98 CALM      30.00S
BRIDGEPORT     PTCLDY    70  70  98 CALM      30.02S
DECATUR        PTCLDY    72  67  85 SW3       30.00S
DENTON         CLOUDY    73  71  93 SE3       29.97F
MCKINNEY       CLOUDY    76  74  93 CALM      29.98S
BONHAM         CLEAR     73  73 100 CALM      29.99S FOG
GREENVILLE     CLOUDY    79  77  94 CALM      29.98S
ROCKWALL       CLOUDY    77  73  90 CALM      29.98F
TERRELL        CLOUDY    77  73  87 CALM      29.98S
WAXAHACHIE     CLOUDY    74  73  96 CALM      30.00S
CLEBURNE       CLOUDY    73  72  94 CALM      30.00F
GRANBURY       CLEAR     71  69  92 CALM      29.99F
$$

TXZ083>090-098>101-113>116-127>130-139>142-154-155-181100-
WESTERN NORTH TEXAS

CITY           SKY/WX    TMP DP  RH WIND       PRES   REMARKS
WICHITA FALLS  CLEAR     69  67  93 S7        29.98S
WF-KICKAPOO    CLEAR     71  69  92 S8        30.01S
VERNON         CLEAR     73  66  79 CALM      30.01R
ABILENE        PTCLDY    72  69  90 SE5       30.02S
ABILENE-DYESS  CLOUDY    73  69  87 NE3       30.00S
GRAHAM         PTCLDY    69  32  25 CALM      30.00R
BRECKENRIDGE   CLEAR     72  69  92 CALM      30.00S
CISCO          CLOUDY    70  68  94 SW7       30.02F
EASTLAND       CLEAR     68  67  97 CALM      30.02R
RANGER         CLEAR     68  67  95 CALM      30.02S
MINERAL WELLS  CLEAR     69  68  96 SE5       29.98F
STEPHENVILLE   CLOUDY    71  67  89 CALM      30.03S
COMANCHE       CLOUDY    70  70 100 CALM      30.02S
BROWNWOOD      CLOUDY    72  72 100 CALM      30.01F
COLEMAN        PTCLDY    72  69  92 CALM      30.03S
$$

TXZ143>147-156>162-174-175-181100-
CENTRAL TEXAS

CITY           SKY/WX    TMP DP  RH WIND       PRES   REMARKS
WACO           CLEAR     74  71  91 S5        29.98S
WACO-MCGREGOR  CLEAR     73  68  84 CALM      29.99S
HILLSBORO      MOCLDY    75  73  92 CALM      29.99S
CORSICANA      CLOUDY    76  73  91 S3        29.99S
MEXIA          PTCLDY    74  71  90 SE6       29.98F
HEARNE         CLOUDY    76  75  95 CALM      30.01S
CAMERON        PTCLDY    77  74  88 S5        29.99F
TEMPLE         PTCLDY    77  72  84 S12       29.99F
KILLEEN        CLEAR     76  70  83 S6        29.99S
KILLEEN-SKYLRK CLEAR     76  70  82 S6        30.00S
FORT HOOD      CLEAR    N/A N/A N/A S5        29.97S
HAMILTON       PTCLDY    75  73  91 S7        30.01F
LAMPASAS       PTCLDY    76  73  90 S3        30.00S
$$

TXZ095>097-106>112-122>126-135>138-148>153-164>167-181100-
EAST TEXAS

CITY           SKY/WX    TMP DP  RH WIND       PRES   REMARKS
PARIS          CLOUDY    75  74  96 NE3       29.99F
SULPHUR SPRNGS CLEAR     76  76  98 CALM      30.00S
MOUNT PLEASANT CLOUDY   N/A N/A N/A CALM      29.99S
GILMER         PTCLDY    76  74  96 S3        29.98S
MINEOLA          N/A     75  73  94 CALM      29.97F
TYLER          CLOUDY    79  75  87 S9        29.98F
LONGVIEW       CLEAR     79  76  90 SW9       29.97F
MARSHALL         N/A     75  73  91 CALM      30.01S
ATHENS         CLOUDY    75  75 100 CALM      29.97F
PALESTINE      CLEAR     77  73  85 S3        30.01S
JACKSONVILLE   CLEAR     77  74  90 SW6       30.03S
HENDERSON      CLEAR     77  75  95 CALM      30.00F
CENTER         CLOUDY    82  78  89 S3        30.01S HX  91
NACOGDOCHES    PTCLDY    77  75  94 S3        30.01S
LUFKIN         CLEAR     76  74  93 CALM      30.01R
$$

SUPPLEMENTAL OBSERVATIONS (NWS FORT WORTH AREA)

CITY           SKY/WX    TMP DP  RH WIND       PRES   REMARKS
DENISON DAM      N/A     75  73  94 CALM        N/A
PAT MAYSE LAKE   N/A     75  73  94 N1          N/A
GREENVILLE       N/A     75  70  83 E2          N/A
CEDAR HILL       N/A     73  70  88 SE1         N/A
POSSUM KINGDOM   N/A     72  66  83 SE1         N/A
GRANBURY         N/A     70  66  88 CALM        N/A
MCGREGOR         N/A     75  70  83 S5          N/A
TEMPLE           N/A     75  72  88 S5          N/A
ATHENS           N/A     79  77  94 S3          N/A
$$

SUPPLEMENTAL OBSERVATIONS (NWS NORMAN AREA)

CITY           SKY/WX    TMP DP  RH WIND       PRES   REMARKS
GOODLETT         N/A     68  65  88 NE6       30.01R
ODELL            N/A     69  68  94 E5        30.02R
CROWELL          N/A     71  68  90 S2        30.00R
KNOX CITY        N/A     71  66  82 SE6       30.00F
SEYMOUR          N/A     72  67  85 S5        29.99F
MILLERS CREEK    N/A     73  68  83 S6          N/A
$$

SUPPLEMENTAL OBSERVATIONS (NWS SAN ANGELO AREA)

CITY           SKY/WX    TMP DP  RH WIND       PRES   REMARKS
WEINERT          N/A     71  67  87 SE7       30.00F
HASKELL          N/A     72  64  76 SE5       30.00F
THROCKMORTON     N/A     72  68  87 S3        30.01F
STAMFORD         N/A     70  67  91 SE7       30.01F
CLYDE            N/A     72  69  89 S5        30.04S
HAMBY            N/A     72  68  88 SE6         N/A
IVIE RESERVOIR   N/A     73  72  94 N2          N/A
COLORADO BEND    N/A     75  68  78 S7          N/A
$$

SUPPLEMENTAL OBSERVATIONS (NWS SHREVEPORT AREA)

CITY           SKY/WX    TMP DP  RH WIND       PRES   REMARKS
CLARKSVILLE      N/A     75  72  88 NE1         N/A
TEXARKANA        N/A     73  72  94 CALM        N/A
LINDEN           N/A     73  70  88 CALM        N/A
CADDO LAKE       N/A     72  70  94 CALM        N/A
GILMER           N/A     75  73  94 SW1         N/A
HENDERSON        N/A     77  75  94 S3          N/A
LUFKIN           N/A     75  72  88 MISG        N/A
N SABINE NF      N/A     77  75  94 MISG        N/A
S SABINE NF      N/A     77  75  94 S1          N/A
$$

SUPPLEMENTAL OBSERVATIONS ARE A COLLECTION OF AUTOMATED INSTRUMENTS
THAT ARE MAINTAINED BY A VARIETY OF FEDERAL AND STATE AGENCIES.
CERTAIN ELEMENTS...SUCH AS HUMIDITY VALUES AND SUSTAINED WIND
SPEEDS...MAY BE APPROXIMATED.





USA.gov is the U.S. government's official web portal to all federal, state and local government web resources and services.